Location: Kra?nica
(53.4833°N, 14.6167°E)
Time: 06:48:54
(UTC+00:00)

Okean 1-7 - Pass Details

Date: 23 May 2024
Orbit: 579 x 604 km, 82.5° (Epoch: 15 June)

Event Time Altitude Azimuth Distance (km) Brightness Sun altitude
Exits shadow 01:30:10 10° 235° (SW) 1,915 5.0 -9.0°
Maximum altitude 01:33:46 27° 293° (WNW) 1,172 4.4 -8.6°
Drops below altitude 10° 01:37:29 10° 352° (N) 1,962 6.3 -8.3°
Sets 01:40:00 0° 5° (N) 2,873 7.6 -8.1°
